Home   Weather   Inglewood   Past weeks

Flag for USA Past Weather in Inglewood, California, USA — Yesterday and Last 2 Weeks

Now
69 °F

Sunny.


Feels Like: 69 °F
Forecast: 60 / 68 °F
Wind: 12 mph from West

Location: Hawthorne Municipal Airport

Current Time: May 28, 2017 at 5:02:42 pm

Latest Report: May 28, 2017 at 3:53 pm


Visibility: 10 mi

Pressure: 29.98 "Hg

Humidity: 63%

Dew Point: 56 °F

Location of InglewoodLocation

Past Weather in Inglewood — Graph

°F

Inglewood Temperature Yesterday

Maximum temperature yesterday: 68 °F (at 2:53 pm)
Minimum temperature yesterday: 59 °F (at 1:53 am)
Average temperature yesterday: 63 °F

High & Low Weather Summary for the Past Weeks

 TemperatureHumidityPressure
High87 °F (May 20, 11:36 am)96% (May 22, 4:40 am)30.07 "Hg (May 22, 4:40 am)
Low55 °F (May 16, 2:53 am)16% (May 19, 11:53 am)29.81 "Hg (May 20, 5:53 pm)
Average63 °F69%29.93 "Hg
* Reported May 13 3:53 pm — May 28 3:53 pm, Inglewood. Weather by CustomWeather, © 2017

Note: Actual official high and low records may vary slightly from our data, if they occured in-between our weather recording intervals... More about our weather records

Advertising

Inglewood Weather History for the Previous 24 Hours

Scroll right to see more
 ConditionsComfort  
Time TempWeatherWind HumidityBarometerVisibility
3:53 pm
Sun, May 28
69 °FSunny.12 mph63%29.98 "Hg10 mi
2:53 pm69 °FSunny.15 mph63%29.99 "Hg10 mi
1:53 pm69 °FSunny.14 mph61%30.00 "Hg10 mi
12:53 pm69 °FSunny.14 mph61%30.01 "Hg10 mi
11:53 am70 °FSunny.10 mph55%30.01 "Hg10 mi
10:53 am68 °FSunny.3 mph61%30.02 "Hg10 mi
9:53 am65 °FSunny.7 mph70%30.03 "Hg10 mi
8:53 am63 °FScattered clouds.5 mph75%30.03 "Hg10 mi
7:53 am61 °FPartly sunny.5 mph83%30.03 "Hg10 mi
6:53 am59 °FSunny.3 mph87%30.02 "Hg10 mi
5:53 am58 °FSunny.No wind93%30.01 "Hg10 mi
4:53 am58 °FClear.No wind93%29.99 "Hg10 mi
3:53 am59 °FClear.No wind90%29.99 "Hg10 mi
2:53 am59 °FClear.3 mph90%30.01 "Hg10 mi
1:53 am59 °FClear.No wind90%30.01 "Hg10 mi
12:53 am60 °FClear.5 mph86%30.02 "Hg10 mi
11:53 pm
Sat, May 27
61 °FClear.3 mph83%30.03 "Hg10 mi
10:53 pm62 °FClear.3 mph75%30.03 "Hg10 mi
9:53 pm62 °FClear.7 mph73%30.03 "Hg10 mi
8:53 pm63 °FClear.3 mph68%30.02 "Hg10 mi
7:53 pm64 °FSunny.10 mph63%30.02 "Hg10 mi
6:53 pm66 °FSunny.10 mph59%30.02 "Hg10 mi
5:53 pm66 °FSunny.9 mph63%30.03 "Hg10 mi
Weather by CustomWeather, © 2017

See weather overviewHow to use our weather pages